TimeCDT,TemperatureF,Dew PointF,Humidity,Sea Level PressureIn,VisibilityMPH,Wind Direction,Wind SpeedMPH,Gust SpeedMPH,PrecipitationIn,Events,Conditions,WindDirDegrees,DateUTC
12:14 AM,30.2,26.6,86,29.95,10.0,WNW,11.5,19.6,N/A,,Overcast,290,2013-03-11 05:14:00
12:53 AM,28.9,27.0,92,29.96,9.0,WNW,13.8,19.6,N/A,,Overcast,290,2013-03-11 05:53:00
1:42 AM,28.4,24.8,86,29.93,10.0,WNW,15.0,-,N/A,,Overcast,290,2013-03-11 06:42:00
1:53 AM,28.9,25.0,85,29.94,10.0,WNW,13.8,21.9,N/A,,Overcast,300,2013-03-11 06:53:00
2:53 AM,28.9,25.0,85,29.96,10.0,WNW,10.4,21.9,N/A,,Overcast,290,2013-03-11 07:53:00
3:01 AM,28.4,24.8,86,29.94,10.0,WNW,10.4,17.3,N/A,,Overcast,290,2013-03-11 08:01:00
3:42 AM,28.4,24.8,86,29.95,10.0,WNW,12.7,21.9,N/A,,Overcast,290,2013-03-11 08:42:00
3:53 AM,28.0,24.1,85,29.97,10.0,West,10.4,-,N/A,,Overcast,270,2013-03-11 08:53:00
4:53 AM,28.0,24.1,85,29.96,10.0,West,9.2,-,N/A,,Overcast,280,2013-03-11 09:53:00
5:53 AM,28.0,24.1,85,29.97,10.0,WNW,10.4,-,N/A,,Overcast,290,2013-03-11 10:53:00
6:53 AM,28.0,24.1,85,29.97,10.0,Variable,6.9,-,N/A,,Overcast,0,2013-03-11 11:53:00
7:53 AM,27.0,23.0,85,29.98,10.0,West,8.1,-,N/A,,Mostly Cloudy,280,2013-03-11 12:53:00
8:53 AM,28.9,24.1,82,29.99,10.0,West,6.9,-,N/A,,Scattered Clouds,270,2013-03-11 13:53:00
9:09 AM,28.4,24.8,86,29.97,10.0,West,9.2,16.1,N/A,,Mostly Cloudy,260,2013-03-11 14:09:00
9:53 AM,30.0,24.1,79,30.01,10.0,WNW,13.8,-,N/A,,Overcast,300,2013-03-11 14:53:00
10:53 AM,30.9,25.0,79,30.01,10.0,NW,12.7,-,N/A,,Overcast,310,2013-03-11 15:53:00
11:53 AM,34.0,27.0,75,30.02,10.0,WNW,10.4,-,N/A,,Overcast,300,2013-03-11 16:53:00
12:53 PM,37.0,28.0,70,30.01,10.0,West,12.7,16.1,N/A,,Mostly Cloudy,260,2013-03-11 17:53:00
1:53 PM,39.9,28.0,63,29.99,10.0,West,9.2,18.4,N/A,,Mostly Cloudy,270,2013-03-11 18:53:00
2:00 PM,41.0,28.4,61,29.97,10.0,West,10.4,-,N/A,,Scattered Clouds,270,2013-03-11 19:00:00
2:53 PM,42.1,26.1,53,29.98,10.0,WSW,12.7,18.4,N/A,,Partly Cloudy,250,2013-03-11 19:53:00
3:53 PM,44.1,25.0,47,29.98,10.0,West,10.4,23.0,N/A,,Clear,280,2013-03-11 20:53:00
4:53 PM,44.1,19.0,37,29.98,10.0,West,9.2,19.6,N/A,,Clear,280,2013-03-11 21:53:00
5:53 PM,44.1,21.9,42,29.99,10.0,WNW,12.7,-,N/A,,Clear,300,2013-03-11 22:53:00
6:53 PM,43.0,19.9,40,29.99,10.0,West,6.9,-,N/A,,Clear,280,2013-03-11 23:53:00
7:53 PM,39.0,19.9,46,30.01,10.0,West,4.6,-,N/A,,Clear,280,2013-03-12 00:53:00
8:53 PM,35.1,25.0,67,30.02,10.0,Calm,Calm,-,N/A,,Clear,0,2013-03-12 01:53:00
9:53 PM,32.0,25.0,75,30.05,10.0,Calm,Calm,-,N/A,,Clear,0,2013-03-12 02:53:00
10:53 PM,30.0,27.0,88,30.07,10.0,Calm,Calm,-,N/A,,Clear,0,2013-03-12 03:53:00
11:53 PM,30.0,26.1,85,30.07,10.0,Calm,Calm,-,N/A,,Clear,0,2013-03-12 04:53:00